Time,TemperatureF,DewpointF,PressureIn,WindDirection,WindDirectionDegrees,WindSpeedMPH,WindSpeedGustMPH,Humidity,HourlyPrecipIn,Conditions,Clouds,dailyrainin,SoftwareType,DateUTC
2013-02-09 00:02:00,17.4,15.0,29.76,NNE,31,4.0,14.0,91,0.00,,,0.00,weatherlink.com 1.10,2013-02-09 05:02:00,
2013-02-09 00:17:00,17.6,16.0,29.75,NNE,29,5.0,7.0,91,0.00,,,0.00,weatherlink.com 1.10,2013-02-09 05:17:00,
2013-02-09 00:32:00,17.6,16.0,29.73,West,280,2.0,12.0,91,0.00,,,0.00,weatherlink.com 1.10,2013-02-09 05:32:00,
2013-02-09 00:47:00,17.8,16.0,29.72,NE,41,2.0,16.0,91,0.00,,,0.00,weatherlink.com 1.10,2013-02-09 05:47:00,
2013-02-09 01:02:00,18.0,16.0,29.72,NE,38,6.0,14.0,91,0.00,,,0.00,weatherlink.com 1.10,2013-02-09 06:02:00,
2013-02-09 01:17:00,18.2,16.0,29.72,North,355,3.0,14.0,92,0.00,,,0.00,weatherlink.com 1.10,2013-02-09 06:17:00,
2013-02-09 01:32:00,18.5,19.0,29.72,NNE,17,2.0,17.0,100,0.00,,,0.00,weatherlink.com 1.10,2013-02-09 06:32:00,
2013-02-09 01:47:00,18.5,17.0,29.71,ENE,62,3.0,12.0,92,0.00,,,0.00,weatherlink.com 1.10,2013-02-09 06:47:00,
2013-02-09 02:02:00,19.1,17.0,29.72,NNE,25,3.0,13.0,92,0.00,,,0.00,weatherlink.com 1.10,2013-02-09 07:02:00,
2013-02-09 02:17:00,19.4,18.0,29.72,North,360,0.0,4.0,92,0.00,,,0.00,weatherlink.com 1.10,2013-02-09 07:17:00,
2013-02-09 02:32:00,19.7,18.0,29.73,NNE,28,0.0,6.0,93,0.00,,,0.00,weatherlink.com 1.10,2013-02-09 07:32:00,
2013-02-09 02:47:00,19.7,18.0,29.73,NNE,28,0.0,2.0,93,0.00,,,0.00,weatherlink.com 1.10,2013-02-09 07:47:00,
2013-02-09 03:02:00,19.7,18.0,29.72,NNE,22,1.0,3.0,93,0.00,,,0.00,weatherlink.com 1.10,2013-02-09 08:02:00,
2013-02-09 03:17:00,19.7,18.0,29.71,NNW,344,0.0,7.0,92,0.00,,,0.00,weatherlink.com 1.10,2013-02-09 08:17:00,
2013-02-09 03:32:00,19.1,17.0,29.70,North,5,1.0,6.0,92,0.00,,,0.00,weatherlink.com 1.10,2013-02-09 08:32:00,
2013-02-09 03:47:00,18.9,17.0,29.70,NNE,15,1.0,5.0,92,0.00,,,0.00,weatherlink.com 1.10,2013-02-09 08:47:00,
2013-02-09 04:02:00,18.7,17.0,29.70,NNW,333,1.0,6.0,92,0.00,,,0.00,weatherlink.com 1.10,2013-02-09 09:02:00,
2013-02-09 04:17:00,18.5,17.0,29.70,North,10,2.0,6.0,92,0.00,,,0.00,weatherlink.com 1.10,2013-02-09 09:17:00,
2013-02-09 04:32:00,18.1,16.0,29.70,North,355,8.0,13.0,92,0.00,,,0.00,weatherlink.com 1.10,2013-02-09 09:32:00,
2013-02-09 04:47:00,17.9,16.0,29.71,NW,306,4.0,15.0,92,0.00,,,0.00,weatherlink.com 1.10,2013-02-09 09:47:00,
2013-02-09 05:02:00,17.7,16.0,29.71,North,355,7.0,10.0,91,0.00,,,0.00,weatherlink.com 1.10,2013-02-09 10:02:00,
2013-02-09 05:17:00,17.6,16.0,29.70,North,350,4.0,8.0,91,0.00,,,0.00,weatherlink.com 1.10,2013-02-09 10:17:00,
2013-02-09 05:32:00,17.7,16.0,29.70,NNE,15,13.0,13.0,91,0.00,,,0.00,weatherlink.com 1.10,2013-02-09 10:32:00,
2013-02-09 05:47:00,17.7,16.0,29.71,NNE,13,5.0,14.0,91,0.00,,,0.00,weatherlink.com 1.10,2013-02-09 10:47:00,
2013-02-09 06:02:00,17.8,15.0,29.71,NNE,20,7.0,14.0,90,0.00,,,0.00,weatherlink.com 1.10,2013-02-09 11:02:00,
2013-02-09 06:17:00,17.6,15.0,29.71,NNE,33,4.0,15.0,90,0.00,,,0.00,weatherlink.com 1.10,2013-02-09 11:17:00,
2013-02-09 06:32:00,17.3,15.0,29.71,NNW,346,2.0,13.0,90,0.00,,,0.00,weatherlink.com 1.10,2013-02-09 11:32:00,
2013-02-09 06:47:00,17.0,14.0,29.71,NNW,329,5.0,11.0,89,0.00,,,0.00,weatherlink.com 1.10,2013-02-09 11:47:00,
2013-02-09 07:02:00,16.5,14.0,29.72,NNW,347,6.0,14.0,89,0.00,,,0.00,weatherlink.com 1.10,2013-02-09 12:02:00,
2013-02-09 07:17:00,15.9,13.0,29.73,NNE,15,4.0,11.0,89,0.00,,,0.00,weatherlink.com 1.10,2013-02-09 12:17:00,
2013-02-09 07:32:00,15.3,13.0,29.73,North,355,4.0,14.0,89,0.00,,,0.00,weatherlink.com 1.10,2013-02-09 12:32:00,
2013-02-09 07:47:00,14.7,12.0,29.74,North,349,3.0,12.0,89,0.00,,,0.00,weatherlink.com 1.10,2013-02-09 12:47:00,
2013-02-09 08:02:00,14.5,12.0,29.75,NW,320,5.0,11.0,90,0.00,,,0.00,weatherlink.com 1.10,2013-02-09 13:02:00,
2013-02-09 08:18:00,14.0,12.0,29.75,NW,326,2.0,16.0,90,0.00,,,0.00,weatherlink.com 1.10,2013-02-09 13:18:00,
2013-02-09 08:33:00,13.6,11.0,29.76,North,355,0.0,15.0,90,0.00,,,0.00,weatherlink.com 1.10,2013-02-09 13:33:00,
2013-02-09 08:48:00,13.3,11.0,29.77,NNW,344,4.0,17.0,90,0.00,,,0.00,weatherlink.com 1.10,2013-02-09 13:48:00,
2013-02-09 09:03:00,13.1,11.0,29.76,NNW,340,5.0,28.0,89,0.00,,,0.00,weatherlink.com 1.10,2013-02-09 14:03:00,
2013-02-09 09:18:00,13.5,11.0,29.76,NW,326,8.0,22.0,89,0.00,,,0.00,weatherlink.com 1.10,2013-02-09 14:18:00,
2013-02-09 09:33:00,13.7,11.0,29.77,NNE,21,6.0,22.0,88,0.00,,,0.00,weatherlink.com 1.10,2013-02-09 14:33:00,
2013-02-09 09:48:00,13.8,11.0,29.78,NNW,332,3.0,14.0,88,0.00,,,0.00,weatherlink.com 1.10,2013-02-09 14:48:00,
2013-02-09 10:03:00,13.9,11.0,29.80,North,355,7.0,14.0,88,0.00,,,0.00,weatherlink.com 1.10,2013-02-09 15:03:00,
2013-02-09 10:18:00,14.1,11.0,29.80,North,360,10.0,15.0,88,0.00,,,0.00,weatherlink.com 1.10,2013-02-09 15:18:00,
2013-02-09 10:33:00,14.3,11.0,29.80,NE,36,7.0,19.0,88,0.00,,,0.00,weatherlink.com 1.10,2013-02-09 15:33:00,
2013-02-09 10:48:00,14.4,11.0,29.81,NW,316,6.0,20.0,87,0.00,,,0.00,weatherlink.com 1.10,2013-02-09 15:48:00,
2013-02-09 11:03:00,14.4,11.0,29.81,NNW,343,7.0,23.0,87,0.00,,,0.00,weatherlink.com 1.10,2013-02-09 16:03:00,
2013-02-09 11:18:00,14.5,11.0,29.82,NNE,30,6.0,20.0,87,0.00,,,0.00,weatherlink.com 1.10,2013-02-09 16:18:00,
2013-02-09 11:33:00,14.9,12.0,29.82,North,350,11.0,19.0,87,0.00,,,0.00,weatherlink.com 1.10,2013-02-09 16:33:00,
2013-02-09 11:48:00,15.5,12.0,29.82,North,5,4.0,23.0,86,0.00,,,0.00,weatherlink.com 1.10,2013-02-09 16:48:00,
2013-02-09 12:03:00,16.1,13.0,29.83,North,5,4.0,17.0,86,0.00,,,0.00,weatherlink.com 1.10,2013-02-09 17:03:00,
2013-02-09 12:18:00,16.0,12.0,29.83,NNE,20,4.0,23.0,85,0.00,,,0.00,weatherlink.com 1.10,2013-02-09 17:18:00,
2013-02-09 12:33:00,15.9,12.0,29.84,NNW,337,10.0,23.0,85,0.00,,,0.00,weatherlink.com 1.10,2013-02-09 17:33:00,
2013-02-09 12:48:00,16.2,12.0,29.84,NNW,344,12.0,18.0,84,0.00,,,0.00,weatherlink.com 1.10,2013-02-09 17:48:00,
2013-02-09 13:03:00,16.3,12.0,29.84,NW,319,7.0,19.0,83,0.00,,,0.00,weatherlink.com 1.10,2013-02-09 18:03:00,
2013-02-09 13:18:00,16.6,12.0,29.85,NNE,18,14.0,16.0,83,0.00,,,0.00,weatherlink.com 1.10,2013-02-09 18:18:00,
2013-02-09 13:33:00,16.9,12.0,29.86,NNW,341,8.0,20.0,82,0.00,,,0.00,weatherlink.com 1.10,2013-02-09 18:33:00,
2013-02-09 13:48:00,17.5,13.0,29.87,North,360,9.0,22.0,81,0.00,,,0.00,weatherlink.com 1.10,2013-02-09 18:48:00,
2013-02-09 14:03:00,17.6,12.0,29.88,North,360,10.0,20.0,80,0.00,,,0.00,weatherlink.com 1.10,2013-02-09 19:03:00,
2013-02-09 14:18:00,17.7,12.0,29.89,NNE,18,13.0,21.0,79,0.00,,,0.00,weatherlink.com 1.10,2013-02-09 19:18:00,
2013-02-09 14:33:00,17.8,12.0,29.89,North,355,10.0,29.0,78,0.00,,,0.00,weatherlink.com 1.10,2013-02-09 19:33:00,
2013-02-09 14:48:00,18.3,13.0,29.90,North,11,10.0,20.0,78,0.00,,,0.00,weatherlink.com 1.10,2013-02-09 19:48:00,
2013-02-09 15:03:00,18.4,12.0,29.91,North,355,4.0,19.0,77,0.00,,,0.00,weatherlink.com 1.10,2013-02-09 20:03:00,
2013-02-09 15:18:00,18.4,12.0,29.93,North,360,6.0,24.0,76,0.00,,,0.00,weatherlink.com 1.10,2013-02-09 20:18:00,
2013-02-09 15:32:00,17.9,12.0,29.93,North,10,20.0,22.0,76,0.00,,,0.00,weatherlink.com 1.10,2013-02-09 20:32:00,
2013-02-09 15:48:00,18.0,12.0,29.94,North,360,11.0,26.0,76,0.00,,,0.00,weatherlink.com 1.10,2013-02-09 20:48:00,
2013-02-09 16:18:00,18.4,11.0,29.96,NNE,14,13.0,25.0,73,0.00,,,0.00,weatherlink.com 1.10,2013-02-09 21:18:00,
2013-02-09 16:33:00,18.4,11.0,29.96,NW,311,5.0,20.0,73,0.00,,,0.00,weatherlink.com 1.10,2013-02-09 21:33:00,
2013-02-09 16:48:00,18.1,11.0,29.98,NNE,18,8.0,19.0,72,0.00,,,0.00,weatherlink.com 1.10,2013-02-09 21:48:00,
2013-02-09 17:03:00,17.7,10.0,29.99,NE,40,15.0,18.0,72,0.00,,,0.00,weatherlink.com 1.10,2013-02-09 22:03:00,
2013-02-09 17:18:00,17.5,10.0,30.00,NNW,331,10.0,17.0,71,0.00,,,0.00,weatherlink.com 1.10,2013-02-09 22:18:00,
2013-02-09 17:33:00,17.1,10.0,30.01,North,355,10.0,19.0,72,0.00,,,0.00,weatherlink.com 1.10,2013-02-09 22:33:00,
2013-02-09 17:48:00,16.7,9.0,30.02,NNW,337,9.0,22.0,71,0.00,,,0.00,weatherlink.com 1.10,2013-02-09 22:48:00,
2013-02-09 18:03:00,16.6,9.0,30.04,North,355,11.0,15.0,71,0.00,,,0.00,weatherlink.com 1.10,2013-02-09 23:03:00,
2013-02-09 18:33:00,16.3,8.0,30.05,North,355,5.0,19.0,70,0.00,,,0.00,weatherlink.com 1.10,2013-02-09 23:33:00,
2013-02-09 18:48:00,16.2,8.0,30.06,North,349,9.0,22.0,70,0.00,,,0.00,weatherlink.com 1.10,2013-02-09 23:48:00,
2013-02-09 19:04:00,15.8,8.0,30.07,NNE,27,9.0,16.0,70,0.00,,,0.00,weatherlink.com 1.10,2013-02-10 00:04:00,
2013-02-09 19:19:00,15.5,7.0,30.07,NE,41,7.0,20.0,69,0.00,,,0.00,weatherlink.com 1.10,2013-02-10 00:19:00,
2013-02-09 19:34:00,15.3,7.0,30.08,NNE,19,4.0,17.0,69,0.00,,,0.00,weatherlink.com 1.10,2013-02-10 00:34:00,
2013-02-09 19:49:00,15.1,7.0,30.09,North,360,4.0,17.0,69,0.00,,,0.00,weatherlink.com 1.10,2013-02-10 00:49:00,
2013-02-09 20:04:00,14.6,6.0,30.10,North,355,10.0,13.0,69,0.00,,,0.00,weatherlink.com 1.10,2013-02-10 01:04:00,
2013-02-09 20:19:00,14.4,6.0,30.10,NW,310,6.0,11.0,70,0.00,,,0.00,weatherlink.com 1.10,2013-02-10 01:19:00,
2013-02-09 20:34:00,14.4,6.0,30.11,NNE,14,4.0,10.0,69,0.00,,,0.00,weatherlink.com 1.10,2013-02-10 01:34:00,
2013-02-09 20:49:00,14.6,6.0,30.11,NNW,346,5.0,9.0,68,0.00,,,0.00,weatherlink.com 1.10,2013-02-10 01:49:00,
2013-02-09 21:04:00,14.5,5.0,30.11,NNE,14,5.0,15.0,67,0.00,,,0.00,weatherlink.com 1.10,2013-02-10 02:04:00,
2013-02-09 21:19:00,14.9,5.0,30.11,NNW,341,9.0,16.0,66,0.00,,,0.00,weatherlink.com 1.10,2013-02-10 02:19:00,
2013-02-09 21:34:00,15.2,5.0,30.10,NNW,345,5.0,19.0,63,0.00,,,0.00,weatherlink.com 1.10,2013-02-10 02:34:00,
2013-02-09 21:49:00,15.2,5.0,30.11,NNE,30,8.0,15.0,63,0.00,,,0.00,weatherlink.com 1.10,2013-02-10 02:49:00,
2013-02-09 22:04:00,15.2,4.0,30.11,NNE,19,16.0,20.0,61,0.00,,,0.00,weatherlink.com 1.10,2013-02-10 03:04:00,
2013-02-09 22:19:00,15.2,4.0,30.11,North,360,8.0,23.0,61,0.00,,,0.00,weatherlink.com 1.10,2013-02-10 03:19:00,
2013-02-09 22:34:00,14.7,3.0,30.12,NNW,347,1.0,19.0,61,0.00,,,0.00,weatherlink.com 1.10,2013-02-10 03:34:00,
2013-02-09 22:49:00,14.6,3.0,30.11,NW,313,7.0,20.0,60,0.00,,,0.00,weatherlink.com 1.10,2013-02-10 03:49:00,
2013-02-09 23:04:00,14.6,3.0,30.13,NW,324,7.0,18.0,60,0.00,,,0.00,weatherlink.com 1.10,2013-02-10 04:04:00,
2013-02-09 23:19:00,15.0,3.0,30.14,WNW,295,7.0,20.0,59,0.00,,,0.00,weatherlink.com 1.10,2013-02-10 04:19:00,
2013-02-09 23:34:00,15.3,3.0,30.14,WNW,295,3.0,14.0,58,0.00,,,0.00,weatherlink.com 1.10,2013-02-10 04:34:00,
2013-02-09 23:49:00,14.9,3.0,30.15,WSW,249,4.0,8.0,59,0.00,,,0.00,weatherlink.com 1.10,2013-02-10 04:49:00,